User: anonymous   Login
Location: Vulcan
(50.4000°N, 113.2500°W)
Time: 16:51:27
(UTC-07:00)
Language:

Vanguard 2 - Orbit

View from above orbital plane
View from above orbital plane
View from above satellite
View from above satellite

Ground track
Ground track

The orbit data is extracted from the following two-line orbital elements,

1    11U 59001A   19318.87796886 +.00000157 +00000-0 +85036-4 0  9997
2    11 032.8635 144.7594 1466795 114.5365 261.4977 11.85626452249380
Epoch (UTC): 14 November 2019 21:04:16
Eccentricity: 0.1466795
inclination: 32.8635°
perigee height: 554 km
apogee height: 2937 km
right ascension of ascending node: 144.7594°
argument of perigee: 114.5365°
revolutions per day: 11.85626452
mean anomaly at epoch: 261.4977°
orbit number at epoch: 24938

The dashed part of the orbit path shows where the satellite is in the earth's shadow,  

DLR